World > North America > United States > New York > Watkins Glen  

Watkins Glen, NY Hourly Weather Updates

Feedback E-mail the Weather

Quick Clicks

Watkins Glen, NY Weather Maps

°F °C°F °C
Watkins Glen Weather Map
UTC Time: 6/21/2024, 02:32
Your Time:

Watkins Glen, NY Regional Weather

Expires:202406210300;;381675
ASUS41 KBGM 210210
RWRBGM

REGIONAL WEATHER ROUNDUP
NATIONAL WEATHER SERVICE BINGHAMTON NY
1000 PM EDT THU JUN 20 2024

Note: "fair" indicates few or no clouds below 12,000 feet with no
significant weather and/or obstructions to visibility.

* = Station(s) that does not report precipitation, such as rain, 
snow, etc, also no thunder or fog.


NYZ009-015>018-022>025-036-037-044>046-055>057-062-210300
...Central New York...
  
CITY           SKY/WX    TMP DP  RH WIND       PRES   REMARKS
Binghamton     PTCLDY    76  71  85 CALM      30.29R                  
Cortland       PTCLDY    73  68  83 CALM      30.28R                  
Dansville      PTCLDY    79  73  82 CALM      30.26R                  
Elmira         PTCLDY    75  71  87 CALM      30.25R                  
Endicott         N/A     75  75 100 CALM      30.25                   
Ithaca         PTCLDY    72  70  93 CALM      30.27R                  
Hamilton       CLEAR     72  66  83 CALM      30.29R                  
Monticello     NOT AVBL                                               
Norwich        CLEAR     69  69  99 CALM      30.30S                  
Oneonta        CLEAR     70  70 100 CALM      30.31R                  
Penn Yan       PTCLDY    75  69  81 VRB3      30.27R                  
Rome           CLEAR     74  65  73 CALM      30.25R                  
Seneca Falls   CLEAR     75  63  64 CALM      30.25R                  
Skaneateles    CLEAR     72  68  88 CALM      30.26R                  
Syracuse       PTCLDY    78  64  61 CALM      30.24R                  
$$
 

SKY/WX - Weather  TMP - Temperature  DP - Dew Point  RH - Humidity
WIND - Wind Direction/Speed PRES - Barometric Pressure VSB - Visibility
WCI - Wind Chill Index E13G22 Wind - East Wind 13 mph/Gusts of 22 mph

Trending Headlines

Trending Entertainment Headlines

Watkins Glen Radar Loop

Use the map search tool if you want to place a location marker on the radar map...

Watkins Glen Quick Facts

National Two Day Weather Forecast


E-mail the Watkins Glen Weather Forecast

Voice your opinion or tell us about page issues...